Regional Weather Roundup
Issued by NWS

Home | Current Version | Previous Version | Graphics & Text | Print | Product List | Glossary On
Versions: 1 2 3 4 5 6 7 8 9 10 11 12 13 14 15 16 17 18 19 20 21 22 23 24 25 26 27 28 29 30 31 32 33 34 35 36 37 38 39 40 41 42 43 44 45 46 47 48 49 50
533
ASUS45 KABQ 271910
RWRNM
NEW MEXICO REGIONAL WEATHER ROUNDUP
NATIONAL WEATHER SERVICE ALBUQUERQUE NM
100 PM MDT SAT MAY 27 2017

NOTE: "FAIR" MEANS FEW OR NO CLOUDS BELOW 12,000 FEET AGL WITH NO
       SIGNIFICANT WEATHER OR OBSTRUCTIONS TO VISION.

      THIS PRODUCT IS RELEASED AS TWO VERSIONS.  ONE VERSION NEAR
      THE TOP OF THE HOUR CONTAINING PRELIMINARY DATA FROM ALBUQUERQUE
      AND OTHER STATIONS.  A FINAL VERSION WITH ADDITIONAL DATA IS
      ISSUED ABOUT 10 MINUTES AFTER THE HOUR.

NMZ501-503-504-510>518-272000-
NORTHWEST PLATEAU/NORTHCENTRAL MOUNTAINS

CITY           SKY/WX    TMP DP  RH WIND       PRES   REMARKS
FARMINGTON     FAIR      74  27  17 NW18G26   30.08S
LOS ALAMOS     FAIR      70  13  11 W13G22    30.14F
SANTA FE       FAIR      76  17  11 SW16G26   30.09F
TAOS           FAIR      70  21  16 SW15G21   30.13F
ANGEL FIRE     FAIR      61  26  25 W13G25    30.20F

$$
NMZ402-403-502-505>509-272000-
WESTCENTRAL MOUNTAINS/SOUTHWEST MOUNTAINS

CITY           SKY/WX    TMP DP  RH WIND       PRES   REMARKS
GALLUP         FAIR      71  22  15 VRB6G21   30.16S
GRANTS         FAIR      73  17  12 NW3G20    30.16F
SILVER CITY    FAIR      78   8   7 SW14G21   30.14F

$$
NMZ407-409-411-412-272000-
SOUTHERN DESERTS

CITY           SKY/WX    TMP DP  RH WIND       PRES   REMARKS
DEMING         FAIR      85  16   7 W15G25    30.08F
LAS CRUCES     FAIR      85  14   7 W20G29    30.09F
HOLLOMAN AFB   FAIR      86  12   6 SW18      30.06F
ALAMOGORDO     FAIR      84  18   8 W14G20    30.05F
T OR C         FAIR      83  19   9 VRB6      30.05F

$$
NMZ519>523-272000-
CENTRAL VALLEYS/CENTRAL HIGHLANDS

CITY           SKY/WX    TMP DP  RH WIND       PRES   REMARKS
ALBUQUERQUE    FAIR      77  17  10 W13G23    30.07F
DOUBLE EAGLE   MOSUNNY   77  21  12 SW9G22    30.11F
MORIARTY ARPT  FAIR      77  18  11 W18G26    30.12S
CLINES CORNERS FAIR      71  15  11 W18G32    30.15R
BELEN          FAIR      79  17   9 SW12G20   30.07F
SOCORRO        FAIR      83  17   8 E7        30.05F

$$
NMZ524>526-539-540-272000-
SOUTHCENTRAL MOUNTAINS

CITY           SKY/WX    TMP DP  RH WIND       PRES   REMARKS
RUIDOSO        FAIR      75  12   9 W17G24    30.17F

$$
NMZ527>531-272000-
NORTHEAST HIGHLANDS/NORTHEAST PLAINS

CITY           SKY/WX    TMP DP  RH WIND       PRES   REMARKS
LAS VEGAS      FAIR      75  17  11 NE8G17    30.07F
RATON          FAIR      75  29  18 S13G21    30.02F
CLAYTON        FAIR      69  52  54 NE15G25   30.04S

$$
NMZ532>537-272000-
EASTCENTRAL PLAINS

CITY           SKY/WX    TMP DP  RH WIND       PRES   REMARKS
SANTA ROSA     FAIR      83  19   9 SW10G22   29.98F
TUCUMCARI      FAIR      85  28  12 E7G17     29.93F
CANNON AFB     FAIR      86  16   7 SW20G25   29.98F
CLOVIS AIRPORT FAIR      86  25  10 W29       29.97F

$$
NMZ028-029-538-272000-
SOUTHEAST PLAINS

CITY           SKY/WX    TMP DP  RH WIND       PRES   REMARKS
ROSWELL        FAIR      93  16   6 SW13G23   29.93F
ARTESIA        FAIR      90  28  11 SW7       29.94F
CARLSBAD       FAIR      93  23   8 W24G32    29.94F
HOBBS          SUNNY     91  19   7 SW16      29.97F


$$




USA.gov is the U.S. government's official web portal to all federal, state and local government web resources and services.